{"data":{"norad_id":53588,"intl_designator":"2022-104A","name":"STARLINK-4691","alt_names":[],"object_type":"PAYLOAD","status":"ACTIVE","operator":null,"country":"US","launch_date":"2022-08-28","launch_site_code":"AFETR","launch_vehicle":null,"mission":null,"orbit_class":"UNKNOWN","rcs_meters":null,"size_class":null,"mass_kg":null,"dimensions":null,"purposes":["comms"],"wikipedia_slug":null,"has_3d_model":false,"image_url":null,"decayed_at":null,"tle_current":{"epoch":"2026-05-25T00:19:36.679872Z","epoch_age_seconds":70042,"freshness":"FRESH","line1":"1 53588U 22104A   26145.01361898 -.00000668  00000+0 -23903-4 0  9994","line2":"2 53588  53.2152 261.7370 0001297  87.5044 272.6097 15.08837008207611","mean_motion":15.08837008,"eccentricity":0.0001297,"inclination_deg":53.2152,"raan_deg":261.737,"arg_perigee_deg":87.5044,"mean_anomaly_deg":272.6097,"bstar":-2.3903e-5,"rev_number":20761,"period_min":95.437743928932,"perigee_km":538.85528405365,"apogee_km":540.64978459885,"semimajor_km":6917.8895343262,"source":"CELESTRAK","updated_at":"2026-05-25T13:38:17.473395Z"}}}